Flag for Japan Weather past 2 weeks in Minamisōma, Japan

Now
77 °F

Scattered clouds.


Feels Like: 79 °F
Forecast: 53 / 73 °F
Wind: 8 mph from North

Location: Sendai Airport

Current Time: Sep 16, 2014 at 5:27:44 PM

Latest Report: Sep 16, 2014 at 4:00 PM


Visibility: N/A

Pressure: 29.83 "Hg

Humidity: 61%

Dew point: 63 °F

Location of MinamisōmaLocation

Historic Weather in Minamisōma — Graph

°F

Minamisōma temperature yesterday

Maximum temperature yesterday: 72 °F (at 12:00 PM)
Minimum temperature yesterday: 57 °F (at 6:00 AM)
Average temperature yesterday: 68 °F

Past Weeks' High & Low Weather Summary

 TemperatureHumidityPressure
High81 °F (Sep 6, 12:00 PM)100% (Sep 6, 6:00 AM)30.04 "Hg (Sep 6, 6:00 AM)
Low57 °F (Sep 12, 6:00 AM)42% (Sep 12, 2:00 PM)29.68 "Hg (Sep 9, 12:00 PM)
Average72 °F80%29.86 "Hg
* Reported Sep 1 4:00 PM — Sep 16 4:00 PM, Minamisōma, Weather by CustomWeather, © 2014

Note: Actual official high and low records may vary slightly from our data, if they occured in-between our weather recording intervals... More about our weather records

Advertising

Minamisōma weather history for previous 24 hours

 ConditionsComfort  
Time TempWeatherWind HumidityBarometerVisibility
4:00 PM
Sep 16
77 °FScattered clouds.8 mph61%29.83 "HgN/A
3:00 PM77 °FScattered clouds.5 mph65%29.80 "HgN/A
2:00 PM81 °FScattered clouds.7 mph51%29.80 "HgN/A
1:00 PM75 °FScattered clouds.10 mph69%29.83 "HgN/A
12:00 PM72 °FBroken clouds.6 mph73%29.83 "HgN/A
11:00 AM72 °FSprinkles. Broken clouds.5 mph78%29.86 "HgN/A
10:00 AM75 °FPartly sunny.3 mph65%29.86 "HgN/A
9:00 AM72 °FPartly sunny.2 mph73%29.86 "HgN/A
8:00 AM70 °FScattered clouds.1 mph78%29.86 "HgN/A
7:00 AM66 °FScattered clouds.2 mph83%29.86 "HgN/A
6:00 AM63 °FBroken clouds.1 mph94%29.86 "HgN/A
9:00 PM
Sep 15
66 °FPartly cloudy.3 mph88%29.92 "HgN/A
8:00 PM66 °FPartly cloudy.3 mph88%29.92 "HgN/A
7:00 PM68 °FPartly cloudy.3 mph83%29.89 "HgN/A
6:00 PM70 °FPartly cloudy.6 mph78%29.89 "HgN/A
5:00 PM70 °FPartly sunny.9 mph73%29.89 "HgN/A
Weather by CustomWeather, © 2014

See weather overviewHow to use our weather pages